Flag for Canada Weather past 2 weeks in Charlottetown, Pr.Edward I, Canada

Now
36 °F

Passing clouds.


Feels Like: 29 °F
Forecast: 36 / 54 °F
Wind: 8 mph from Southwest

Location: Charlottetown


UV Index: 3 (Moderate)

Visibility: 15 mi


Pressure: 30.24 "Hg

Humidity: 65%

Dew point: 25 °F

Location of CharlottetownLocation

Historic Weather in Charlottetown

°F

Charlottetown temperature yesterday

Maximum temperature yesterday: 43 °F (at 6:00 PM)
Minimum temperature yesterday: 30 °F (at 12:00 AM)
Average temperature yesterday: 35 °F

Past Weeks' High & Low Weather Summary

 TemperatureHumidityPressure
High64 °F (Apr 15, 2:00 PM)100% (Apr 6, 2:00 AM)30.86 "Hg (Apr 6, 2:00 AM)
Low23 °F (Apr 18, 1:00 AM)27% (Apr 17, 6:00 PM)29.24 "Hg (Apr 9, 3:00 AM)
Average39 °F72%30.06 "Hg
* Reported Apr 6 2:00 AM — Apr 21 2:00 AM, Charlottetown, Weather by CustomWeather, © 2014

Note: Actual official high and low records may vary slightly from our data, if they occured in-between our weather recording intervals... More about our weather records

Advertising

Historic Weather Conditions — Data for Previous 24 hours

 ConditionsComfort  
Time TempWeatherWind HumidityBarometerVisibility
2:00 AM
Apr 21
36 °FPassing clouds.7 mph56%30.27 "Hg15 mi
1:00 AM36 °FPassing clouds.7 mph52%30.29 "Hg15 mi
12:00 AM34 °FPassing clouds.8 mph56%30.30 "Hg15 mi
11:00 PM
Apr 20
34 °FPassing clouds.7 mph60%30.33 "Hg15 mi
10:00 PM34 °FPassing clouds.8 mph65%30.34 "Hg15 mi
9:00 PM36 °FPassing clouds.8 mph60%30.35 "Hg15 mi
8:00 PM41 °FScattered clouds.3 mph31%30.34 "Hg15 mi
7:00 PM43 °FScattered clouds.3 mph29%30.35 "Hg15 mi
6:00 PM43 °FBroken clouds.6 mph29%30.36 "Hg15 mi
5:00 PM41 °FScattered clouds.9 mph39%30.38 "Hg15 mi
4:00 PM41 °FPartly sunny.7 mph45%30.38 "Hg15 mi
3:00 PM39 °FPartly sunny.8 mph48%30.40 "Hg15 mi
2:00 PM36 °FScattered clouds.10 mph56%30.41 "Hg15 mi
1:00 PM36 °FScattered clouds.14 mph52%30.42 "Hg15 mi
12:00 PM36 °FPassing clouds.14 mph52%30.43 "Hg15 mi
11:00 AM36 °FPassing clouds.14 mph56%30.41 "Hg15 mi
10:00 AM34 °FPassing clouds.16 mph60%30.39 "Hg15 mi
9:00 AM34 °FPartly sunny.14 mph65%30.37 "Hg15 mi
8:00 AM32 °FPartly sunny.15 mph75%30.35 "Hg15 mi
7:00 AM34 °FPassing clouds.13 mph75%30.32 "Hg15 mi
6:00 AM34 °FLow clouds.13 mph81%30.28 "Hg15 mi
5:00 AM34 °FMostly cloudy.9 mph87%30.26 "Hg15 mi
4:00 AM32 °FPassing clouds.9 mph93%30.23 "Hg15 mi
3:00 AM32 °FMostly cloudy.10 mph93%30.22 "Hg15 mi
Weather by CustomWeather, © 2014

See weather overview